sat.trackr.live / text

‹ back to catalog

STARLINK-31758

NORAD 59621 · 2024-080W

PAYLOAD ACTIVE UNKNOWN

§ Identity

Operator
Country
US
Launch date
2024-04-28
Launch site
AFETR
Launch vehicle
Mass (kg)
RCS (m²)

Purposes: comms

External: N2YO · Heavens-Above · Gunter

§ Orbital elements

Epoch: 2026-05-24T18:40:10.752672Z

Period
94.27 min
Inclination
42.9996°
Eccentricity
0.0001239
Mean motion
15.27582239 rev/d
Perigee alt
482.2 km
Apogee alt
483.9 km
Semi-major
6,861.2 km
B*
1.3140e-4
RAAN
324.3711°
Arg perigee
267.9987°
Mean anomaly
92.0723°
Rev number
11,621

§ Raw data

STARLINK-317581 59621U 24080W   26144.77790223  .00003356  00000+0  13140-3 0  99992 59621  42.9996 324.3711 0001239 267.9987  92.0723 15.27582239116216

JSON: /api/v1/satellites/59621 · /tle

For live sub-satellite position, see the globe view (requires WebGL).

§ Visibility from observer

Set your observer location to see the next 7 days of passes ≥ 10°. The values pass through the URL so the page stays shareable.

No JS? Fill the form by hand. The geolocation button needs JavaScript.